Station 44029 - Buoy A01 - Massachusetts Bay Image indicating link to RSS feed of recent meteorological observations for station 44029


Conditions at 44029 as of
(12:04 pm EDT)
1604 GMT on 05/26/2024:
     

Click on the graph icon in the table below to see a time series plot of the last five days of that observation.

5-day plot - Wind Speed Wind Speed (WSPD): 0.0 kts
5-day plot - Wind Gust Wind Gust (GST): 1.9 kts
5-day plot - Wave Height Wave Height (WVHT): 1.0 ft
5-day plot - Dominant Wave Period Dominant Wave Period (DPD): 3 sec
5-day plot - Atmospheric Pressure Atmospheric Pressure (PRES):29.95 in
5-day plot - Air Temperature Air Temperature (ATMP): 61.3 °F
5-day plot - Water Temperature Water Temperature (WTMP): 58.6 °F
5-day plot - Salinity Salinity (SAL): 29.40 psu
5-day plot - Visibility Visibility (VIS) (0 to 1.6 nmi): 1.6 nmi
5-day plot - Wind Speed at 10 Meters Wind Speed at 10 meters (WSPD10M): 1.9 kts
5-day plot - Wind Speed at 20 Meters Wind Speed at 20 meters (WSPD20M): 1.9 kts
5-day plot -  Wind Speed, Wind Gust and Atmospheric Pressure Combined plot of Wind Speed, Gust, and Air Pressure
Previous observations
TIME
(EDT)
5-day plot - Wind Direction
WDIR
 
5-day plot - Wind Speed
WSPD
kts
5-day plot - Wind Gust
GST
kts
5-day plot - Wave Height
WVHT
ft
5-day plot - Dominant Wave Period
DPD
sec
5-day plot - Average Wave Period
APD
sec
5-day plot - Mean Wave Direction
MWD
 
5-day plot - Atmospheric Pressure
PRES
in
5-day plot - Pressure Tendency
PTDY
in
5-day plot - Air Temperature
ATMP
°F
5-day plot - Water Temperature
WTMP
°F
5-day plot - Dew Point
DEWP
°F
5-day plot - Salinity
SAL
psu
5-day plot - Visibility
VIS
nmi
5-day plot - Tide (above MLLW)
TIDE
ft
2024-05-26 11:04 am NE 1.9 1.9 1.0 3--29.96- 61.5 57.6- 29.40 1.6-
2024-05-26 10:04 am S 3.9 5.8 1.0 2--29.95- 59.4 57.2- 29.50 1.6-
2024-05-26 09:04 amSSW 3.9 5.8 1.0 2--29.94- 59.2 56.5- 29.50 1.6-
2024-05-26 08:04 am SE 9.7 9.7 1.0 3--29.92- 57.9 56.3- 29.50 1.6-
2024-05-26 07:04 amWSW 1.9 3.9 1.0 3--29.94- 57.6 56.3- 29.50 1.6-
2024-05-26 06:04 am E 1.9 3.9 1.0 3--29.90- 58.5 56.3- 29.40 1.6-
2024-05-26 05:04 amSSW 5.8 7.8 1.0 3--29.88- 58.3 56.3- 29.40 1.6-
2024-05-26 04:04 amSSW 5.8 7.8 1.0 4--29.87- 58.3 56.5- 29.40 1.6-
2024-05-26 03:04 am S 7.8 9.7 1.3 4--29.87- 58.5 56.8- 29.30 1.6-
2024-05-26 02:04 amSSW 7.8 9.7 1.3 4--29.87- 59.0 57.0- 29.30 1.6-
2024-05-26 01:04 amSSW 9.7 11.7 1.6 4--29.86- 59.2 57.2- 29.30 1.6-
2024-05-26 12:04 amSSW 9.7 11.7 1.3 4--29.87- 59.7 57.2- 29.30 1.6-
2024-05-25 11:04 pmSSW 7.8 9.7 1.6 4--29.87- 59.5 57.4- 29.30 1.6-
2024-05-25 10:04 pmSSW 9.7 9.7 1.6 4--29.86- 59.9 57.4- 29.30 1.6-
2024-05-25 09:04 pm S 11.7 13.6 1.6 3--29.86- 60.4 57.4- 29.30 1.6-
2024-05-25 08:04 pm S 13.6 15.5 1.6 3--29.84- 62.1 57.6- 29.30 1.6-
2024-05-25 07:04 pm S 13.6 17.5 2.0 3--29.84- 60.8 57.6- 29.30 1.6-
2024-05-25 06:04 pmSSE 15.5 17.5 1.6 3--29.83- 60.6 57.9- 29.30 1.6-
2024-05-25 05:04 pmSSE 13.6 15.5 1.3 3--29.85- 59.7 58.3- 29.30 1.6-
2024-05-25 04:04 pm SE 11.7 13.6 1.0 2--29.85- 59.4 58.5- 29.30 1.6-
2024-05-25 03:04 pm SE 9.7 11.7 1.0 8--29.85- 59.7 58.6- 29.20 1.6-
2024-05-25 02:04 pmESE 9.7 11.7 1.0 8--29.86- 60.1 59.2- 29.20 1.6-
2024-05-25 01:04 pmESE 5.8 7.8 1.0 6--29.88- 60.3 59.7- 29.20 1.6-

Disclaimer: Ocean current directions are reported to the nearest 10 degrees and speeds are measured to the nearest whole centimeter per second.

Ocean Current Data for 44029

Unit of Measure:   Time Zone:   
12:04 pm EDT11:04 am EDT10:04 am EDT
Depth
ft
Dir
°
Speed
kts
Dir
°
Speed
kts
Dir
°
Speed
kts
7 310 0.25290 0.25290 0.10
33 340 0.35360 0.16320 0.25
46 360 0.17 60 0.12340 0.10
59 350 0.08 90 0.08 20 0.04
72 280 0.06190 0.08220 0.02
85 270 0.21240 0.19240 0.12
98 260 0.41250 0.37250 0.21
112 260 0.51250 0.41250 0.27
125 250 0.43250 0.35250 0.21
138 240 0.37250 0.27260 0.21
151 250 0.31260 0.29270 0.21
164 260 0.31260 0.35270 0.27
177 260 0.35260 0.37270 0.33
190 270 0.39260 0.37270 0.33

Previous (up to 48) reports of ocean current data for 44029

Ocean Current Stick Plots are available in metric units only:

All Instruments - 1-day plot - ocean current 1-day plot     3-day plot - ocean current 3-day plot     5-day plot - ocean current 5-day plot     


Ocean Conditions at 44029 as of
(12:04 pm EDT)
1604 GMT on 05/26/2024:

These oceanographic data are displayed in rounded times.

     

Click on the graph icon in the table below to see a time series plot of the last five days of that observation.

Depth (DEPTH): 3.3 ft
5-day plot - Ocean Temperature Ocean Temperature (OTMP):58.64 °F
5-day plot - Salinity Salinity (SAL):29.40 psu
Previous observations
TIME
(EDT)
DEPTH
ft
5-day plot - Ocean Temperature
OTMP
°F
5-day plot - Conductivity
COND
mS/cm
5-day plot - Salinity
SAL
psu
5-day plot - Oxygen Concentration
O2%
%
5-day plot - Oxygen Concentration
O2PPM
ppm
5-day plot - Chlorophyll
CLCON
ug/l
5-day plot - Turbidity
TURB
FTU
5-day plot - pH
PH
 
5-day plot - Eh
EH
mv
2024-05-26 11:04 am 3.357.56-29.40------
2024-05-26 10:04 am 3.357.20-29.50------
2024-05-26 09:04 am 3.356.48-29.50------
2024-05-26 08:04 am 3.356.30-29.50------
2024-05-26 07:04 am 3.356.30-29.50------
2024-05-26 06:04 am 3.356.30-29.40------
2024-05-26 05:04 am 3.356.30-29.40------
2024-05-26 04:04 am 3.356.48-29.40------
2024-05-26 03:04 am 3.356.84-29.30------
2024-05-26 02:04 am 3.357.02-29.30------
2024-05-26 01:04 am 3.357.20-29.30------
2024-05-26 12:04 am 3.357.20-29.30------
2024-05-25 11:04 pm 3.357.38-29.30------
2024-05-25 10:04 pm 3.357.38-29.30------
2024-05-25 09:04 pm 3.357.38-29.30------
2024-05-25 08:04 pm 3.357.56-29.30------
2024-05-25 07:04 pm 3.357.56-29.30------
2024-05-25 06:04 pm 3.357.92-29.30------
2024-05-25 05:04 pm 3.358.28-29.30------
2024-05-25 04:04 pm 3.358.46-29.30------
2024-05-25 03:04 pm 3.358.64-29.20------
2024-05-25 02:04 pm 3.359.18-29.20------
2024-05-25 01:04 pm 3.359.72-29.20------